Weather in Ivanovka

Ukraine / Kherson District     47°28′12″N   33°22′53″E
temp.,
°C
wind,
m/s
gust,
m/s
humid.,
%
clouds,
%
prec.,
mm/h
press.,
hPa
HPBL,
m
17 april, sat
sat1700:00+6sw5108196 0.0 1018614
03:00+5wsw6109199 0.2 1018849
06:00+4wsw410905 0.1 1019387
09:00+8w58665 0.1 1020724
12:00+12wsw574928 0.0 10211664
15:00+13wsw4546100 0.0 10201674
18:00+13nw2246100 0.0 1019677
21:00+9ne116055 0.0 102013
18 april, sun
sun1800:00+7n117196 0.0 101911
03:00+6sw127199 0.0 101911
06:00+6wsw225978 0.0 101912
09:00+10ssw224749 0.0 1019415
12:00+14ssw23425 0.0 10181624
15:00+16sw2238100 0.0 10171961
18:00+14ssw224698 0.0 1017835
21:00+11ssw225398 0.0 101814
19 april, mon
mon1900:00+10s346390 0.0 101765
03:00+9wsw3378100 0.0 101738
06:00+8wnw117669 0.0 101610
09:00+12ene1158100 0.0 1016425
12:00+15ene2248100 0.1 10151794
15:00+16e334799 0.1 10141558
18:00+16ene3346100 0.0 10131202
21:00+13ene5963100 0.0 1012321
20 april, tue
tue2000:00+12ne5106499 0.0 1010429
03:00+10ene51078100 0.1 1007392
06:00+9ene61193100 7.1 1005517
09:00+9ne91595100 13.9 1000845
12:00+10e71197100 9.4 997522
15:00+11s5991100 13.8 996793
18:00+11ssw4580100 0.1 996655
21:00+9nnw71192100 0.6 999798
21 april, wed
wed2100:00+9wnw81388100 0.6 1004867
03:00+8w71184100 0.6 1008564
06:00+7w51084100 0.0 1011484
09:00+8w61070100 0.0 1014811
12:00+12w6855100 0.0 10151450
15:00+15w684515 0.0 10162022
18:00+14w465087 0.0 10171864
21:00+11sw366880 0.0 1019134